Flag for Russia Past Weather in Petropavlovsk-Kamchatsky, Russia — Yesterday and Last 2 Weeks

Now
48 °F

Clear.


Feels Like: 48 °F
Forecast: 49 / 69 °F
Wind: 1 mph from North

Location: Petropavlovsk-Kamchatskij

Current Time: Jun 30, 2016 at 4:33:10 AM

Latest Report: Jun 30, 2016 at 4:00 AM


Visibility: N/A

Pressure: 29.56 "Hg

Humidity: 94%

Dew Point: 46 °F

Location of Petropavlovsk-KamchatskyLocation

Past Weather in Petropavlovsk-Kamchatsky — Graph

°F

Petropavlovsk-Kamchatsky Temperature Yesterday

Maximum temperature yesterday: 72 °F (at 2:30 PM)
Minimum temperature yesterday: 48 °F (at 4:00 AM)
Average temperature yesterday: 63 °F

High & Low Weather Summary for the Past Weeks

 TemperatureHumidityPressure
High82 °F (Jun 23, 4:00 PM)100% (Jun 26, 12:30 PM)30.21 "Hg (Jun 26, 12:30 PM)
Low41 °F (Jun 15, 3:00 AM)29% (Jun 18, 7:00 PM)29.47 "Hg (Jun 29, 3:00 PM)
Average60 °F65%29.86 "Hg
* Reported Jun 15 3:00 AM — Jun 30 3:00 AM, Petropavlovsk-Kamchatsky, Weather by CustomWeather, © 2016

Note: Actual official high and low records may vary slightly from our data, if they occured in-between our weather recording intervals... More about our weather records

Advertising

Petropavlovsk-Kamchatsky Weather History for the Previous 24 Hours

Scroll right to see more
 ConditionsComfort  
Time TempWeatherWind HumidityBarometerVisibility
3:00 AM
Thu, Jun 30
50 °FClear.1 mph88%29.56 "HgN/A
12:00 AM57 °FClear.1 mph72%29.56 "HgN/A
11:00 PM
Wed, Jun 29
59 °FPassing clouds.3 mph68%29.56 "HgN/A
10:00 PM61 °FPassing clouds.8 mph63%29.53 "HgN/A
9:00 PM64 °FScattered clouds.8 mph56%29.50 "HgN/A
8:00 PM70 °FScattered clouds.10 mph43%29.50 "HgN/A
7:30 PM70 °FPartly sunny.10 mph46%29.50 "HgN/A
7:00 PM72 °FPartly sunny.13 mph44%29.47 "HgN/A
6:30 PM72 °FPartly sunny.15 mph44%29.47 "HgN/A
6:00 PM70 °FPartly sunny.13 mph46%29.47 "HgN/A
5:30 PM72 °FScattered clouds.13 mph44%29.47 "HgN/A
5:00 PM72 °FScattered clouds.13 mph44%29.47 "HgN/A
4:30 PM72 °FScattered clouds.10 mph44%29.47 "HgN/A
4:00 PM72 °FScattered clouds.10 mph47%29.47 "HgN/A
3:30 PM72 °FPassing clouds.8 mph44%29.47 "HgN/A
3:00 PM72 °FPassing clouds.10 mph44%29.47 "HgN/A
2:30 PM72 °FPassing clouds.10 mph47%29.50 "HgN/A
2:00 PM70 °FClear.13 mph46%29.50 "HgN/A
1:30 PM70 °FClear.13 mph46%29.50 "HgN/A
1:00 PM70 °FClear.15 mph50%29.50 "HgN/A
12:30 PM68 °FClear.15 mph49%29.50 "HgN/A
12:00 PM68 °FClear.13 mph53%29.50 "HgN/A
11:30 AM68 °FClear.13 mph49%29.50 "HgN/A
11:00 AM66 °FClear.10 mph52%29.50 "HgN/A
10:30 AM64 °FClear.6 mph60%29.53 "HgN/A
10:00 AM63 °FClear.3 mph64%29.53 "HgN/A
9:30 AM63 °FClear.8 mph64%29.53 "HgN/A
9:00 AM61 °FClear.8 mph68%29.53 "HgN/A
8:30 AM59 °FClear.6 mph72%29.53 "HgN/A
8:00 AM54 °FClear.3 mph82%29.53 "HgN/A
7:30 AM52 °FClear.1 mph88%29.53 "HgN/A
7:00 AM50 °FClear.No wind88%29.56 "HgN/A
6:00 AM48 °FPassing clouds.1 mph87%29.56 "HgN/A
5:00 AM48 °FPassing clouds.3 mph94%29.56 "HgN/A
4:00 AM48 °FPassing clouds.No wind87%29.53 "HgN/A
Weather by CustomWeather, © 2016

See weather overviewHow to use our weather pages